Time,TemperatureF,DewpointF,PressureIn,WindDirection,WindDirectionDegrees,WindSpeedMPH,WindSpeedGustMPH,Humidity,HourlyPrecipIn,Conditions,Clouds,dailyrainin,SoftwareType,DateUTC
2013-01-23 00:02:00,35.5,24.1,29.88,SE,145,3.0,3.0,63,0.00,,,0.00,Wunderground v.1.15,2013-01-23 08:02:00,
2013-01-23 00:07:00,35.6,24.6,29.88,SSE,160,1.0,3.0,64,0.00,,,0.00,Wunderground v.1.15,2013-01-23 08:07:00,
2013-01-23 00:17:00,35.5,24.9,29.87,SSE,161,1.0,1.0,65,0.00,,,0.00,Wunderground v.1.15,2013-01-23 08:17:00,
2013-01-23 00:22:00,35.3,25.1,29.87,ESE,123,1.0,1.0,66,0.00,,,0.00,Wunderground v.1.15,2013-01-23 08:22:00,
2013-01-23 00:32:00,35.3,25.1,29.86,SE,137,2.0,3.0,66,0.00,,,0.00,Wunderground v.1.15,2013-01-23 08:32:00,
2013-01-23 00:37:00,35.3,25.1,29.86,SW,229,1.0,3.0,66,0.00,,,0.00,Wunderground v.1.15,2013-01-23 08:37:00,
2013-01-23 00:42:00,35.2,24.6,29.86,SW,219,1.0,6.0,65,0.00,,,0.00,Wunderground v.1.15,2013-01-23 08:42:00,
2013-01-23 00:52:00,35.5,24.1,29.86,SSW,192,4.0,4.0,63,0.00,,,0.00,Wunderground v.1.15,2013-01-23 08:52:00,
2013-01-23 00:57:00,35.6,24.2,29.86,SW,217,3.0,4.0,63,0.00,,,0.00,Wunderground v.1.15,2013-01-23 08:57:00,
2013-01-23 01:07:00,35.8,24.0,29.88,ESE,114,1.0,5.0,62,0.00,,,0.00,Wunderground v.1.15,2013-01-23 09:07:00,
2013-01-23 01:17:00,35.8,24.4,29.88,SE,141,1.0,1.0,63,0.00,,,0.00,Wunderground v.1.15,2013-01-23 09:17:00,
2013-01-23 01:27:00,35.6,24.2,29.88,SW,215,1.0,1.0,63,0.00,,,0.00,Wunderground v.1.15,2013-01-23 09:27:00,
2013-01-23 01:37:00,35.6,23.9,29.87,SSW,193,1.0,2.0,62,0.00,,,0.00,Wunderground v.1.15,2013-01-23 09:37:00,
2013-01-23 01:52:00,35.5,24.1,29.88,SSW,199,1.0,1.0,63,0.00,,,0.00,Wunderground v.1.15,2013-01-23 09:52:00,
2013-01-23 01:57:00,35.5,24.1,29.88,SE,141,1.0,1.0,63,0.00,,,0.00,Wunderground v.1.15,2013-01-23 09:57:00,
2013-01-23 02:02:00,35.5,24.9,29.90,SE,137,1.0,1.0,65,0.00,,,0.00,Wunderground v.1.15,2013-01-23 10:02:00,
2013-01-23 02:07:00,35.3,24.7,29.90,SSE,164,0.0,1.0,65,0.00,,,0.00,Wunderground v.1.15,2013-01-23 10:07:00,
2013-01-23 02:17:00,35.5,24.5,29.88,SE,133,0.0,0.0,64,0.00,,,0.00,Wunderground v.1.15,2013-01-23 10:17:00,
2013-01-23 02:22:00,35.5,24.1,29.88,South,174,1.0,1.0,63,0.00,,,0.00,Wunderground v.1.15,2013-01-23 10:22:00,
2013-01-23 02:32:00,35.6,24.2,29.89,SSE,155,0.0,0.0,63,0.00,,,0.00,Wunderground v.1.15,2013-01-23 10:32:00,
2013-01-23 02:37:00,35.8,24.0,29.89,SSE,161,1.0,1.0,62,0.00,,,0.00,Wunderground v.1.15,2013-01-23 10:37:00,
2013-01-23 02:47:00,35.6,23.9,29.89,South,191,1.0,1.0,62,0.00,,,0.00,Wunderground v.1.15,2013-01-23 10:47:00,
2013-01-23 02:57:00,35.5,23.8,29.89,SSW,195,1.0,2.0,62,0.00,,,0.00,Wunderground v.1.15,2013-01-23 10:57:00,
2013-01-23 03:02:00,35.5,24.1,29.90,SE,144,1.0,1.0,63,0.00,,,0.00,Wunderground v.1.15,2013-01-23 11:02:00,
2013-01-23 03:07:00,35.5,24.1,29.90,ENE,65,0.0,1.0,63,0.00,,,0.00,Wunderground v.1.15,2013-01-23 11:07:00,
2013-01-23 03:17:00,35.3,24.0,29.87,SSE,162,1.0,1.0,63,0.00,,,0.00,Wunderground v.1.15,2013-01-23 11:17:00,
2013-01-23 03:22:00,35.5,24.1,29.87,South,174,1.0,1.0,63,0.00,,,0.00,Wunderground v.1.15,2013-01-23 11:22:00,
2013-01-23 03:32:00,35.5,23.8,29.85,SSE,164,1.0,1.0,62,0.00,,,0.00,Wunderground v.1.15,2013-01-23 11:32:00,
2013-01-23 03:42:00,35.3,23.6,29.85,SW,222,1.0,2.0,62,0.00,,,0.00,Wunderground v.1.15,2013-01-23 11:42:00,
2013-01-23 03:52:00,35.3,24.3,29.85,SSE,152,2.0,2.0,64,0.00,,,0.00,Wunderground v.1.15,2013-01-23 11:52:00,
2013-01-23 03:57:00,35.2,24.6,29.85,SSE,164,2.0,2.0,65,0.00,,,0.00,Wunderground v.1.15,2013-01-23 11:57:00,
2013-01-23 04:07:00,35.2,25.0,29.87,SE,144,2.0,6.0,66,0.00,,,0.00,Wunderground v.1.15,2013-01-23 12:07:00,
2013-01-23 04:17:00,35.2,24.2,29.86,South,179,1.0,1.0,64,0.00,,,0.00,Wunderground v.1.15,2013-01-23 12:17:00,
2013-01-23 04:27:00,35.0,24.8,29.86,SSE,151,1.0,1.0,66,0.00,,,0.00,Wunderground v.1.15,2013-01-23 12:27:00,
2013-01-23 04:42:00,34.9,24.7,29.86,WSW,246,1.0,1.0,66,0.00,,,0.00,Wunderground v.1.15,2013-01-23 12:42:00,
2013-01-23 04:52:00,34.7,24.5,29.85,SE,144,1.0,1.0,66,0.00,,,0.00,Wunderground v.1.15,2013-01-23 12:52:00,
2013-01-23 05:02:00,34.9,24.3,29.81,SE,144,0.0,10.0,65,0.00,,,0.00,Wunderground v.1.15,2013-01-23 13:02:00,
2013-01-23 05:12:00,34.9,24.3,29.81,SW,226,1.0,3.0,65,0.00,,,0.00,Wunderground v.1.15,2013-01-23 13:12:00,
2013-01-23 05:22:00,34.7,24.9,29.87,SSE,155,3.0,3.0,67,0.00,,,0.00,Wunderground v.1.15,2013-01-23 13:22:00,
2013-01-23 05:32:00,35.0,24.8,29.85,SSW,193,0.0,1.0,66,0.00,,,0.00,Wunderground v.1.15,2013-01-23 13:32:00,
2013-01-23 05:37:00,35.0,24.8,29.85,SSE,168,0.0,1.0,66,0.00,,,0.00,Wunderground v.1.15,2013-01-23 13:37:00,
2013-01-23 05:47:00,34.9,24.7,29.86,East,85,0.0,1.0,66,0.00,,,0.00,Wunderground v.1.15,2013-01-23 13:47:00,
2013-01-23 05:57:00,35.0,24.4,29.86,SSE,147,0.0,0.0,65,0.00,,,0.00,Wunderground v.1.15,2013-01-23 13:57:00,
2013-01-23 06:07:00,35.0,24.4,29.85,SE,137,0.0,3.0,65,0.00,,,0.00,Wunderground v.1.15,2013-01-23 14:07:00,
2013-01-23 06:17:00,34.9,24.3,29.85,SE,144,0.0,0.0,65,0.00,,,0.00,Wunderground v.1.15,2013-01-23 14:17:00,
2013-01-23 06:22:00,35.0,24.4,29.85,SE,144,0.0,0.0,65,0.00,,,0.00,Wunderground v.1.15,2013-01-23 14:22:00,
2013-01-23 06:32:00,35.0,24.0,29.83,SE,144,0.0,0.0,64,0.00,,,0.00,Wunderground v.1.15,2013-01-23 14:32:00,
2013-01-23 06:37:00,35.0,24.4,29.83,SSE,150,0.0,0.0,65,0.00,,,0.00,Wunderground v.1.15,2013-01-23 14:37:00,
2013-01-23 06:47:00,35.0,24.0,29.83,SSE,165,0.0,0.0,64,0.00,,,0.00,Wunderground v.1.15,2013-01-23 14:47:00,
2013-01-23 06:52:00,35.0,24.0,29.83,SSE,165,0.0,0.0,64,0.00,,,0.00,Wunderground v.1.15,2013-01-23 14:52:00,
2013-01-23 07:02:00,35.0,24.8,29.84,SSE,158,0.0,2.0,66,0.00,,,0.00,Wunderground v.1.15,2013-01-23 15:02:00,
2013-01-23 07:07:00,35.2,25.3,29.84,SSE,160,0.0,2.0,67,0.00,,,0.00,Wunderground v.1.15,2013-01-23 15:07:00,
2013-01-23 07:17:00,35.0,25.1,29.82,SE,134,0.0,0.0,67,0.00,,,0.00,Wunderground v.1.15,2013-01-23 15:17:00,
2013-01-23 07:27:00,35.2,25.3,29.82,SE,145,0.0,2.0,67,0.00,,,0.00,Wunderground v.1.15,2013-01-23 15:27:00,
2013-01-23 07:37:00,35.0,25.5,29.82,SSE,160,1.0,1.0,68,0.00,,,0.00,Wunderground v.1.15,2013-01-23 15:37:00,
2013-01-23 07:47:00,34.9,25.4,29.82,SSE,155,1.0,1.0,68,0.00,,,0.00,Wunderground v.1.15,2013-01-23 15:47:00,
2013-01-23 07:52:00,34.9,25.4,29.82,SSE,164,1.0,1.0,68,0.00,,,0.00,Wunderground v.1.15,2013-01-23 15:52:00,
2013-01-23 08:02:00,34.9,24.7,29.82,South,181,1.0,1.0,66,0.00,,,0.00,Wunderground v.1.15,2013-01-23 16:02:00,
2013-01-23 08:07:00,34.9,24.7,29.82,SW,216,1.0,1.0,66,0.00,,,0.00,Wunderground v.1.15,2013-01-23 16:07:00,
2013-01-23 08:17:00,34.9,24.3,29.82,South,172,2.0,7.0,65,0.00,,,0.00,Wunderground v.1.15,2013-01-23 16:17:00,
2013-01-23 08:22:00,34.9,24.7,29.82,South,171,2.0,2.0,66,0.00,,,0.00,Wunderground v.1.15,2013-01-23 16:22:00,
2013-01-23 08:32:00,34.9,24.3,29.84,ESE,119,2.0,5.0,65,0.00,,,0.00,Wunderground v.1.15,2013-01-23 16:32:00,
2013-01-23 08:42:00,34.9,24.7,29.84,South,176,2.0,3.0,66,0.00,,,0.00,Wunderground v.1.15,2013-01-23 16:42:00,
2013-01-23 08:47:00,34.9,24.3,29.84,SSE,164,2.0,3.0,65,0.00,,,0.00,Wunderground v.1.15,2013-01-23 16:47:00,
2013-01-23 08:57:00,35.0,24.4,29.84,SSE,154,1.0,1.0,65,0.00,,,0.00,Wunderground v.1.15,2013-01-23 16:57:00,
2013-01-23 09:07:00,35.0,24.8,29.84,South,191,1.0,9.0,66,0.00,,,0.00,Wunderground v.1.15,2013-01-23 17:07:00,
2013-01-23 09:17:00,35.0,24.8,29.84,SSE,161,1.0,2.0,66,0.00,,,0.00,Wunderground v.1.15,2013-01-23 17:17:00,
2013-01-23 09:22:00,35.0,25.1,29.84,SSE,161,0.0,0.0,67,0.00,,,0.00,Wunderground v.1.15,2013-01-23 17:22:00,
2013-01-23 09:32:00,35.2,25.0,29.85,South,186,0.0,0.0,66,0.00,,,0.00,Wunderground v.1.15,2013-01-23 17:32:00,
2013-01-23 09:42:00,35.2,25.3,29.85,South,186,1.0,1.0,67,0.00,,,0.00,Wunderground v.1.15,2013-01-23 17:42:00,
2013-01-23 09:47:00,35.2,25.7,29.83,SE,126,0.0,1.0,68,0.00,,,0.00,Wunderground v.1.15,2013-01-23 17:47:00,
2013-01-23 09:57:00,35.2,25.7,29.83,SSE,158,0.0,2.0,68,0.00,,,0.00,Wunderground v.1.15,2013-01-23 17:57:00,
2013-01-23 10:07:00,35.2,25.3,29.85,SE,144,1.0,7.0,67,0.00,,,0.00,Wunderground v.1.15,2013-01-23 18:07:00,
2013-01-23 10:12:00,35.3,25.8,29.85,SSE,155,1.0,5.0,68,0.00,,,0.00,Wunderground v.1.15,2013-01-23 18:12:00,
2013-01-23 10:22:00,35.5,25.6,29.85,SE,136,2.0,2.0,67,0.00,,,0.00,Wunderground v.1.15,2013-01-23 18:22:00,
2013-01-23 10:27:00,35.5,25.3,29.85,SSE,157,2.0,7.0,66,0.00,,,0.00,Wunderground v.1.15,2013-01-23 18:27:00,
2013-01-23 10:37:00,35.6,25.0,29.85,ESE,113,1.0,1.0,65,0.00,,,0.00,Wunderground v.1.15,2013-01-23 18:37:00,
2013-01-23 10:42:00,35.8,24.8,29.85,SE,138,0.0,0.0,64,0.00,,,0.00,Wunderground v.1.15,2013-01-23 18:42:00,
2013-01-23 10:52:00,36.0,24.6,29.84,SW,219,0.0,2.0,63,0.00,,,0.00,Wunderground v.1.15,2013-01-23 18:52:00,
2013-01-23 10:57:00,36.0,25.4,29.84,SSE,154,1.0,2.0,65,0.00,,,0.00,Wunderground v.1.15,2013-01-23 18:57:00,
2013-01-23 11:07:00,35.8,26.3,29.84,SE,144,1.0,1.0,68,0.00,,,0.00,Wunderground v.1.15,2013-01-23 19:07:00,
2013-01-23 11:12:00,35.8,26.6,29.84,South,185,1.0,1.0,69,0.00,,,0.00,Wunderground v.1.15,2013-01-23 19:12:00,
2013-01-23 11:22:00,35.5,27.0,29.84,SE,127,2.0,10.0,71,0.00,,,0.00,Wunderground v.1.15,2013-01-23 19:22:00,
2013-01-23 11:27:00,35.3,26.8,29.84,SW,223,2.0,10.0,71,0.00,,,0.00,Wunderground v.1.15,2013-01-23 19:27:00,
2013-01-23 11:37:00,35.2,27.7,29.84,SSE,151,2.0,2.0,74,0.00,,,0.00,Wunderground v.1.15,2013-01-23 19:37:00,
2013-01-23 11:42:00,35.2,27.1,29.84,SSE,161,2.0,5.0,72,0.00,,,0.00,Wunderground v.1.15,2013-01-23 19:42:00,
2013-01-23 11:52:00,35.2,28.1,29.84,SSE,155,1.0,3.0,75,0.00,,,0.00,Wunderground v.1.15,2013-01-23 19:52:00,
2013-01-23 11:57:00,35.0,27.2,29.84,South,189,1.0,3.0,73,0.00,,,0.00,Wunderground v.1.15,2013-01-23 19:57:00,
2013-01-23 12:07:00,35.0,27.2,29.84,SSW,209,2.0,2.0,73,0.00,,,0.00,Wunderground v.1.15,2013-01-23 20:07:00,
2013-01-23 12:17:00,34.7,27.9,29.84,SSE,165,1.0,3.0,76,0.00,,,0.00,Wunderground v.1.15,2013-01-23 20:17:00,
2013-01-23 12:27:00,34.7,29.2,29.84,WNW,289,1.0,1.0,80,0.00,,,0.00,Wunderground v.1.15,2013-01-23 20:27:00,
2013-01-23 12:37:00,34.6,30.0,29.84,SW,216,1.0,1.0,83,0.00,,,0.01,Wunderground v.1.15,2013-01-23 20:37:00,
2013-01-23 12:42:00,34.4,30.1,29.84,SSE,157,1.0,1.0,84,0.00,,,0.01,Wunderground v.1.15,2013-01-23 20:42:00,
2013-01-23 12:52:00,34.3,31.9,29.83,SSE,147,1.0,1.0,91,0.00,,,0.01,Wunderground v.1.15,2013-01-23 20:52:00,
2013-01-23 13:02:00,34.3,34.3,29.83,South,184,0.0,8.0,100,0.00,,,0.01,Wunderground v.1.15,2013-01-23 21:02:00,
2013-01-23 13:07:00,34.3,34.3,29.83,SSE,151,1.0,8.0,100,0.00,,,0.01,Wunderground v.1.15,2013-01-23 21:07:00,
2013-01-23 13:12:00,34.3,34.3,29.83,SSW,205,1.0,1.0,100,0.00,,,0.01,Wunderground v.1.15,2013-01-23 21:12:00,
2013-01-23 13:22:00,34.4,34.4,29.82,South,175,0.0,0.0,100,0.00,,,0.01,Wunderground v.1.15,2013-01-23 21:22:00,
2013-01-23 13:27:00,34.4,34.4,29.82,SSE,157,0.0,0.0,100,0.00,,,0.01,Wunderground v.1.15,2013-01-23 21:27:00,
2013-01-23 13:37:00,34.3,34.3,29.82,SE,145,0.0,1.0,100,0.00,,,0.01,Wunderground v.1.15,2013-01-23 21:37:00,
2013-01-23 13:42:00,34.0,34.0,29.82,South,171,1.0,1.0,100,0.00,,,0.01,Wunderground v.1.15,2013-01-23 21:42:00,
2013-01-23 13:52:00,34.0,34.0,29.84,SSE,158,2.0,2.0,100,0.00,,,0.01,Wunderground v.1.15,2013-01-23 21:52:00,
2013-01-23 13:57:00,34.0,34.0,29.84,South,186,1.0,2.0,100,0.00,,,0.01,Wunderground v.1.15,2013-01-23 21:57:00,
2013-01-23 14:07:00,34.1,34.1,29.85,South,182,1.0,5.0,100,0.00,,,0.01,Wunderground v.1.15,2013-01-23 22:07:00,
2013-01-23 14:17:00,34.1,34.1,29.86,SSW,205,0.0,0.0,100,0.00,,,0.02,Wunderground v.1.15,2013-01-23 22:17:00,
2013-01-23 14:27:00,34.3,34.3,29.86,South,188,0.0,1.0,100,0.00,,,0.02,Wunderground v.1.15,2013-01-23 22:27:00,
2013-01-23 14:32:00,34.3,34.3,29.85,SSE,157,0.0,0.0,100,0.00,,,0.02,Wunderground v.1.15,2013-01-23 22:32:00,
2013-01-23 14:42:00,34.1,34.1,29.85,SE,138,0.0,0.0,100,0.00,,,0.02,Wunderground v.1.15,2013-01-23 22:42:00,
2013-01-23 14:52:00,34.3,34.3,29.87,SSE,152,0.0,0.0,100,0.00,,,0.02,Wunderground v.1.15,2013-01-23 22:52:00,
2013-01-23 14:57:00,34.3,34.3,29.87,SSE,164,0.0,0.0,100,0.00,,,0.02,Wunderground v.1.15,2013-01-23 22:57:00,
2013-01-23 15:07:00,34.3,34.3,29.88,SE,130,0.0,5.0,100,0.00,,,0.03,Wunderground v.1.15,2013-01-23 23:07:00,
2013-01-23 15:17:00,34.3,34.3,29.90,SSE,164,0.0,1.0,100,0.00,,,0.03,Wunderground v.1.15,2013-01-23 23:17:00,
2013-01-23 15:27:00,34.4,34.4,29.90,SSE,162,0.0,0.0,100,0.00,,,0.03,Wunderground v.1.15,2013-01-23 23:27:00,
2013-01-23 15:32:00,34.4,34.4,29.90,SE,138,0.0,0.0,100,0.00,,,0.03,Wunderground v.1.15,2013-01-23 23:32:00,
2013-01-23 15:42:00,34.6,34.6,29.90,SSE,154,0.0,0.0,100,0.00,,,0.03,Wunderground v.1.15,2013-01-23 23:42:00,
2013-01-23 15:52:00,34.6,34.6,29.91,SSW,199,0.0,0.0,100,0.00,,,0.03,Wunderground v.1.15,2013-01-23 23:52:00,
2013-01-23 15:57:00,34.6,34.6,29.91,SSE,157,0.0,0.0,100,0.00,,,0.03,Wunderground v.1.15,2013-01-23 23:57:00,
2013-01-23 16:07:00,34.7,34.7,29.91,SE,133,0.0,6.0,100,0.00,,,0.03,Wunderground v.1.15,2013-01-24 00:07:00,
2013-01-23 16:17:00,34.7,34.7,29.93,SE,130,0.0,1.0,100,0.00,,,0.03,Wunderground v.1.15,2013-01-24 00:17:00,
2013-01-23 16:27:00,34.7,34.7,29.93,SSW,203,0.0,0.0,100,0.00,,,0.03,Wunderground v.1.15,2013-01-24 00:27:00,
2013-01-23 16:32:00,34.7,34.7,29.93,South,188,0.0,0.0,100,0.00,,,0.03,Wunderground v.1.15,2013-01-24 00:32:00,
2013-01-23 16:42:00,34.9,34.9,29.93,SSE,168,0.0,2.0,100,0.00,,,0.03,Wunderground v.1.15,2013-01-24 00:42:00,
2013-01-23 16:52:00,35.0,35.0,29.94,South,175,1.0,1.0,100,0.00,,,0.03,Wunderground v.1.15,2013-01-24 00:52:00,
2013-01-23 16:57:00,35.0,35.0,29.94,South,169,1.0,1.0,100,0.00,,,0.03,Wunderground v.1.15,2013-01-24 00:57:00,
2013-01-23 17:07:00,35.2,35.2,29.94,SE,145,1.0,3.0,100,0.00,,,0.03,Wunderground v.1.15,2013-01-24 01:07:00,
2013-01-23 17:17:00,35.3,35.3,29.94,SE,137,0.0,1.0,100,0.00,,,0.03,Wunderground v.1.15,2013-01-24 01:17:00,
2013-01-23 17:27:00,35.3,35.3,29.94,SE,144,0.0,0.0,100,0.00,,,0.03,Wunderground v.1.15,2013-01-24 01:27:00,
2013-01-23 17:37:00,35.3,35.3,29.95,SE,130,0.0,0.0,100,0.00,,,0.03,Wunderground v.1.15,2013-01-24 01:37:00,
2013-01-23 17:42:00,35.3,35.3,29.95,SSE,154,0.0,0.0,100,0.00,,,0.03,Wunderground v.1.15,2013-01-24 01:42:00,
2013-01-23 17:52:00,35.3,35.3,29.96,South,181,0.0,0.0,100,0.00,,,0.03,Wunderground v.1.15,2013-01-24 01:52:00,
2013-01-23 17:57:00,35.3,35.3,29.96,ESE,119,0.0,1.0,100,0.00,,,0.03,Wunderground v.1.15,2013-01-24 01:57:00,
2013-01-23 18:07:00,35.3,35.3,29.97,SSE,167,0.0,3.0,100,0.00,,,0.03,Wunderground v.1.15,2013-01-24 02:07:00,
2013-01-23 18:17:00,35.3,35.3,29.97,SSE,158,0.0,0.0,100,0.00,,,0.03,Wunderground v.1.15,2013-01-24 02:17:00,
2013-01-23 18:27:00,35.3,35.3,29.97,SSW,208,0.0,0.0,100,0.00,,,0.03,Wunderground v.1.15,2013-01-24 02:27:00,
2013-01-23 18:37:00,35.3,35.3,29.98,South,171,0.0,0.0,100,0.00,,,0.03,Wunderground v.1.15,2013-01-24 02:37:00,
2013-01-23 18:42:00,35.3,35.3,29.98,SSE,164,0.0,0.0,100,0.00,,,0.03,Wunderground v.1.15,2013-01-24 02:42:00,
2013-01-23 18:52:00,35.5,35.5,29.98,SSE,165,0.0,0.0,100,0.00,,,0.04,Wunderground v.1.15,2013-01-24 02:52:00,
2013-01-23 19:02:00,35.3,35.3,29.99,ESE,123,1.0,6.0,100,0.00,,,0.04,Wunderground v.1.15,2013-01-24 03:02:00,
2013-01-23 19:07:00,35.3,35.3,29.99,SSW,208,1.0,6.0,100,0.00,,,0.04,Wunderground v.1.15,2013-01-24 03:07:00,
2013-01-23 19:12:00,35.2,35.2,29.99,South,175,0.0,1.0,100,0.00,,,0.04,Wunderground v.1.15,2013-01-24 03:12:00,
2013-01-23 19:22:00,35.2,35.2,30.00,SSE,154,1.0,1.0,100,0.00,,,0.04,Wunderground v.1.15,2013-01-24 03:22:00,
2013-01-23 19:27:00,35.0,35.0,30.00,SE,144,0.0,7.0,100,0.00,,,0.04,Wunderground v.1.15,2013-01-24 03:27:00,
2013-01-23 19:37:00,35.0,35.0,30.01,South,182,1.0,1.0,100,0.00,,,0.04,Wunderground v.1.15,2013-01-24 03:37:00,
2013-01-23 19:47:00,34.9,34.9,30.01,South,169,1.0,1.0,100,0.00,,,0.04,Wunderground v.1.15,2013-01-24 03:47:00,
2013-01-23 19:52:00,34.9,34.9,30.01,South,188,0.0,1.0,100,0.00,,,0.04,Wunderground v.1.15,2013-01-24 03:52:00,
2013-01-23 20:02:00,34.9,34.9,30.03,SSE,154,1.0,1.0,100,0.00,,,0.04,Wunderground v.1.15,2013-01-24 04:02:00,
2013-01-23 20:12:00,34.9,34.9,30.03,SSE,157,0.0,0.0,100,0.00,,,0.04,Wunderground v.1.15,2013-01-24 04:12:00,
2013-01-23 20:22:00,35.0,35.0,30.04,SSE,154,0.0,0.0,100,0.00,,,0.04,Wunderground v.1.15,2013-01-24 04:22:00,
2013-01-23 20:27:00,35.0,35.0,30.04,SSE,161,0.0,0.0,100,0.00,,,0.04,Wunderground v.1.15,2013-01-24 04:27:00,
2013-01-23 20:37:00,35.0,35.0,30.05,South,184,1.0,1.0,100,0.00,,,0.04,Wunderground v.1.15,2013-01-24 04:37:00,
2013-01-23 20:47:00,35.2,35.2,30.06,SSW,193,1.0,1.0,100,0.00,,,0.04,Wunderground v.1.15,2013-01-24 04:47:00,
2013-01-23 20:52:00,35.2,35.2,30.06,SSE,160,1.0,1.0,100,0.00,,,0.04,Wunderground v.1.15,2013-01-24 04:52:00,
2013-01-23 21:02:00,35.3,35.3,30.07,SSE,157,0.0,3.0,100,0.00,,,0.04,Wunderground v.1.15,2013-01-24 05:02:00,
2013-01-23 21:07:00,35.3,35.3,30.07,SSE,147,0.0,3.0,100,0.00,,,0.04,Wunderground v.1.15,2013-01-24 05:07:00,
2013-01-23 21:12:00,35.3,35.3,30.07,South,171,0.0,0.0,100,0.00,,,0.04,Wunderground v.1.15,2013-01-24 05:12:00,
2013-01-23 21:22:00,35.3,35.3,30.07,SSE,160,0.0,0.0,100,0.00,,,0.04,Wunderground v.1.15,2013-01-24 05:22:00,
2013-01-23 21:32:00,35.3,35.3,30.08,South,179,0.0,0.0,100,0.00,,,0.04,Wunderground v.1.15,2013-01-24 05:32:00,
2013-01-23 21:37:00,35.3,35.3,30.08,SSE,158,0.0,0.0,100,0.00,,,0.04,Wunderground v.1.15,2013-01-24 05:37:00,
2013-01-23 21:42:00,35.3,35.3,30.08,SE,140,0.0,0.0,100,0.00,,,0.04,Wunderground v.1.15,2013-01-24 05:42:00,
2013-01-23 21:47:00,35.3,35.3,30.08,ESE,121,0.0,0.0,100,0.00,,,0.04,Wunderground v.1.15,2013-01-24 05:47:00,
2013-01-23 21:57:00,35.3,35.3,30.08,SSW,193,1.0,1.0,100,0.00,,,0.04,Wunderground v.1.15,2013-01-24 05:57:00,
2013-01-23 22:02:00,35.3,35.3,30.09,SSE,165,0.0,5.0,100,0.00,,,0.04,Wunderground v.1.15,2013-01-24 06:02:00,
2013-01-23 22:12:00,35.5,35.5,30.09,SE,143,0.0,0.0,100,0.00,,,0.04,Wunderground v.1.15,2013-01-24 06:12:00,
2013-01-23 22:22:00,35.5,35.5,30.09,SE,133,0.0,3.0,100,0.00,,,0.04,Wunderground v.1.15,2013-01-24 06:22:00,
2013-01-23 22:32:00,35.6,35.6,30.10,SSE,164,0.0,0.0,100,0.00,,,0.04,Wunderground v.1.15,2013-01-24 06:32:00,
2013-01-23 22:37:00,35.6,35.6,30.10,SSE,154,0.0,0.0,100,0.00,,,0.04,Wunderground v.1.15,2013-01-24 06:37:00,
2013-01-23 22:47:00,35.6,35.6,30.11,SE,133,0.0,0.0,100,0.00,,,0.04,Wunderground v.1.15,2013-01-24 06:47:00,
2013-01-23 22:57:00,35.6,35.6,30.11,SE,134,0.0,3.0,100,0.00,,,0.04,Wunderground v.1.15,2013-01-24 06:57:00,
2013-01-23 23:02:00,35.6,35.6,30.12,SE,131,0.0,3.0,100,0.00,,,0.04,Wunderground v.1.15,2013-01-24 07:02:00,
2013-01-23 23:07:00,35.6,35.6,30.12,SE,141,0.0,3.0,100,0.00,,,0.04,Wunderground v.1.15,2013-01-24 07:07:00,
2013-01-23 23:17:00,35.8,35.8,30.12,South,185,0.0,0.0,100,0.00,,,0.04,Wunderground v.1.15,2013-01-24 07:17:00,
2013-01-23 23:22:00,35.8,35.8,30.12,SE,133,0.0,2.0,100,0.00,,,0.04,Wunderground v.1.15,2013-01-24 07:22:00,
2013-01-23 23:32:00,35.8,35.8,30.12,South,174,0.0,0.0,100,0.00,,,0.04,Wunderground v.1.15,2013-01-24 07:32:00,
2013-01-23 23:42:00,35.8,35.8,30.12,SSE,155,0.0,1.0,100,0.00,,,0.04,Wunderground v.1.15,2013-01-24 07:42:00,
2013-01-23 23:52:00,35.8,35.8,30.13,SSE,154,0.0,1.0,100,0.00,,,0.04,Wunderground v.1.15,2013-01-24 07:52:00,